<?xml version="1.0"?>
<gpx xmlns="http://www.topografix.com/GPX/1/1" xmlns:xsi="http://www.w3.org/2001/XMLSchema-instance" version="1.1" creator="GPX RubyGem 1.0.0 -- http://dougfales.github.io/gpx/" xsi:schemaLocation="http://www.topografix.com/GPX/1/1 http://www.topografix.com/GPX/1/1/gpx.xsd">
  <metadata>
    <name/>
    <time>2026-05-08T00:59:15+00:00</time>
    <bound minlat="90.0" minlon="180.0" maxlat="-90.0" maxlon="-180.0"/>
  </metadata>
  <trk>
    <name/>
    <trkseg>
      <trkpt lat="45.7244" lon="6.423585">
        <time>1970-01-01T00:00:00+00:00</time>
        <ele>541.0</ele>
      </trkpt>
      <trkpt lat="45.72434" lon="6.423679">
        <time>1970-01-01T00:00:00+00:00</time>
        <ele>543.0</ele>
      </trkpt>
      <trkpt lat="45.724192" lon="6.423692">
        <time>1970-01-01T00:00:00+00:00</time>
        <ele>546.0</ele>
      </trkpt>
      <trkpt lat="45.724328" lon="6.424191">
        <time>1970-01-01T00:00:00+00:00</time>
        <ele>553.0</ele>
      </trkpt>
      <trkpt lat="45.72451" lon="6.424502">
        <time>1970-01-01T00:00:00+00:00</time>
        <ele>558.0</ele>
      </trkpt>
      <trkpt lat="45.724721" lon="6.424625">
        <time>1970-01-01T00:00:00+00:00</time>
        <ele>562.0</ele>
      </trkpt>
      <trkpt lat="45.725156" lon="6.424791">
        <time>1970-01-01T00:00:00+00:00</time>
        <ele>564.0</ele>
      </trkpt>
      <trkpt lat="45.725233" lon="6.424966">
        <time>1970-01-01T00:00:00+00:00</time>
        <ele>568.0</ele>
      </trkpt>
      <trkpt lat="45.725206" lon="6.425033">
        <time>1970-01-01T00:00:00+00:00</time>
        <ele>570.0</ele>
      </trkpt>
      <trkpt lat="45.724883" lon="6.424985">
        <time>1970-01-01T00:00:00+00:00</time>
        <ele>572.0</ele>
      </trkpt>
      <trkpt lat="45.72482" lon="6.425021">
        <time>1970-01-01T00:00:00+00:00</time>
        <ele>574.0</ele>
      </trkpt>
      <trkpt lat="45.724838" lon="6.425085">
        <time>1970-01-01T00:00:00+00:00</time>
        <ele>575.0</ele>
      </trkpt>
      <trkpt lat="45.724902" lon="6.425218">
        <time>1970-01-01T00:00:00+00:00</time>
        <ele>578.0</ele>
      </trkpt>
      <trkpt lat="45.725489" lon="6.425766">
        <time>1970-01-01T00:00:00+00:00</time>
        <ele>585.0</ele>
      </trkpt>
      <trkpt lat="45.725524" lon="6.425878">
        <time>1970-01-01T00:00:00+00:00</time>
        <ele>587.0</ele>
      </trkpt>
      <trkpt lat="45.725451" lon="6.426159">
        <time>1970-01-01T00:00:00+00:00</time>
        <ele>594.0</ele>
      </trkpt>
      <trkpt lat="45.725499" lon="6.426454">
        <time>1970-01-01T00:00:00+00:00</time>
        <ele>599.0</ele>
      </trkpt>
      <trkpt lat="45.725696" lon="6.426732">
        <time>1970-01-01T00:00:00+00:00</time>
        <ele>604.0</ele>
      </trkpt>
      <trkpt lat="45.725929" lon="6.426959">
        <time>1970-01-01T00:00:00+00:00</time>
        <ele>611.0</ele>
      </trkpt>
      <trkpt lat="45.726094" lon="6.427033">
        <time>1970-01-01T00:00:00+00:00</time>
        <ele>614.0</ele>
      </trkpt>
      <trkpt lat="45.726211" lon="6.427201">
        <time>1970-01-01T00:00:00+00:00</time>
        <ele>620.0</ele>
      </trkpt>
      <trkpt lat="45.726326" lon="6.427449">
        <time>1970-01-01T00:00:00+00:00</time>
        <ele>627.0</ele>
      </trkpt>
      <trkpt lat="45.725835" lon="6.427807">
        <time>1970-01-01T00:00:00+00:00</time>
        <ele>644.0</ele>
      </trkpt>
      <trkpt lat="45.726172" lon="6.428413">
        <time>1970-01-01T00:00:00+00:00</time>
        <ele>646.0</ele>
      </trkpt>
      <trkpt lat="45.726119" lon="6.428569">
        <time>1970-01-01T00:00:00+00:00</time>
        <ele>649.0</ele>
      </trkpt>
      <trkpt lat="45.725067" lon="6.428848">
        <time>1970-01-01T00:00:00+00:00</time>
        <ele>678.0</ele>
      </trkpt>
      <trkpt lat="45.725033" lon="6.428998">
        <time>1970-01-01T00:00:00+00:00</time>
        <ele>680.0</ele>
      </trkpt>
      <trkpt lat="45.725789" lon="6.430081">
        <time>1970-01-01T00:00:00+00:00</time>
        <ele>716.0</ele>
      </trkpt>
      <trkpt lat="45.72615" lon="6.430124">
        <time>1970-01-01T00:00:00+00:00</time>
        <ele>719.0</ele>
      </trkpt>
      <trkpt lat="45.726379" lon="6.430285">
        <time>1970-01-01T00:00:00+00:00</time>
        <ele>723.0</ele>
      </trkpt>
      <trkpt lat="45.726786" lon="6.431058">
        <time>1970-01-01T00:00:00+00:00</time>
        <ele>730.0</ele>
      </trkpt>
      <trkpt lat="45.726959" lon="6.43171">
        <time>1970-01-01T00:00:00+00:00</time>
        <ele>736.0</ele>
      </trkpt>
      <trkpt lat="45.727295" lon="6.432978">
        <time>1970-01-01T00:00:00+00:00</time>
        <ele>752.0</ele>
      </trkpt>
      <trkpt lat="45.727402" lon="6.434362">
        <time>1970-01-01T00:00:00+00:00</time>
        <ele>780.0</ele>
      </trkpt>
      <trkpt lat="45.727136" lon="6.434108">
        <time>1970-01-01T00:00:00+00:00</time>
        <ele>784.0</ele>
      </trkpt>
      <trkpt lat="45.727307" lon="6.434961">
        <time>1970-01-01T00:00:00+00:00</time>
        <ele>801.0</ele>
      </trkpt>
      <trkpt lat="45.727418" lon="6.435664">
        <time>1970-01-01T00:00:00+00:00</time>
        <ele>829.0</ele>
      </trkpt>
      <trkpt lat="45.727584" lon="6.436252">
        <time>1970-01-01T00:00:00+00:00</time>
        <ele>851.0</ele>
      </trkpt>
      <trkpt lat="45.727653" lon="6.43641">
        <time>1970-01-01T00:00:00+00:00</time>
        <ele>852.0</ele>
      </trkpt>
      <trkpt lat="45.727683" lon="6.436683">
        <time>1970-01-01T00:00:00+00:00</time>
        <ele>852.0</ele>
      </trkpt>
      <trkpt lat="45.727617" lon="6.437298">
        <time>1970-01-01T00:00:00+00:00</time>
        <ele>856.0</ele>
      </trkpt>
      <trkpt lat="45.727597" lon="6.437488">
        <time>1970-01-01T00:00:00+00:00</time>
        <ele>856.0</ele>
      </trkpt>
      <trkpt lat="45.727533" lon="6.437794">
        <time>1970-01-01T00:00:00+00:00</time>
        <ele>857.0</ele>
      </trkpt>
      <trkpt lat="45.727462" lon="6.437939">
        <time>1970-01-01T00:00:00+00:00</time>
        <ele>857.0</ele>
      </trkpt>
      <trkpt lat="45.727331" lon="6.438073">
        <time>1970-01-01T00:00:00+00:00</time>
        <ele>857.0</ele>
      </trkpt>
      <trkpt lat="45.726385" lon="6.438577">
        <time>1970-01-01T00:00:00+00:00</time>
        <ele>860.0</ele>
      </trkpt>
      <trkpt lat="45.726267" lon="6.438729">
        <time>1970-01-01T00:00:00+00:00</time>
        <ele>861.0</ele>
      </trkpt>
      <trkpt lat="45.725944" lon="6.439333">
        <time>1970-01-01T00:00:00+00:00</time>
        <ele>861.0</ele>
      </trkpt>
      <trkpt lat="45.725814" lon="6.439923">
        <time>1970-01-01T00:00:00+00:00</time>
        <ele>868.0</ele>
      </trkpt>
      <trkpt lat="45.725897" lon="6.440563">
        <time>1970-01-01T00:00:00+00:00</time>
        <ele>872.0</ele>
      </trkpt>
      <trkpt lat="45.725929" lon="6.441726">
        <time>1970-01-01T00:00:00+00:00</time>
        <ele>874.0</ele>
      </trkpt>
      <trkpt lat="45.725829" lon="6.442244">
        <time>1970-01-01T00:00:00+00:00</time>
        <ele>876.0</ele>
      </trkpt>
      <trkpt lat="45.725771" lon="6.442426">
        <time>1970-01-01T00:00:00+00:00</time>
        <ele>876.0</ele>
      </trkpt>
      <trkpt lat="45.725687" lon="6.442471">
        <time>1970-01-01T00:00:00+00:00</time>
        <ele>878.0</ele>
      </trkpt>
      <trkpt lat="45.725648" lon="6.442438">
        <time>1970-01-01T00:00:00+00:00</time>
        <ele>880.0</ele>
      </trkpt>
      <trkpt lat="45.725675" lon="6.442169">
        <time>1970-01-01T00:00:00+00:00</time>
        <ele>882.0</ele>
      </trkpt>
      <trkpt lat="45.725669" lon="6.442106">
        <time>1970-01-01T00:00:00+00:00</time>
        <ele>883.0</ele>
      </trkpt>
      <trkpt lat="45.725625" lon="6.442088">
        <time>1970-01-01T00:00:00+00:00</time>
        <ele>885.0</ele>
      </trkpt>
      <trkpt lat="45.725574" lon="6.442109">
        <time>1970-01-01T00:00:00+00:00</time>
        <ele>886.0</ele>
      </trkpt>
      <trkpt lat="45.725504" lon="6.442333">
        <time>1970-01-01T00:00:00+00:00</time>
        <ele>887.0</ele>
      </trkpt>
      <trkpt lat="45.725431" lon="6.442447">
        <time>1970-01-01T00:00:00+00:00</time>
        <ele>886.0</ele>
      </trkpt>
      <trkpt lat="45.725326" lon="6.442475">
        <time>1970-01-01T00:00:00+00:00</time>
        <ele>887.0</ele>
      </trkpt>
      <trkpt lat="45.725221" lon="6.442445">
        <time>1970-01-01T00:00:00+00:00</time>
        <ele>890.0</ele>
      </trkpt>
      <trkpt lat="45.725066" lon="6.44227">
        <time>1970-01-01T00:00:00+00:00</time>
        <ele>894.0</ele>
      </trkpt>
      <trkpt lat="45.725015" lon="6.442158">
        <time>1970-01-01T00:00:00+00:00</time>
        <ele>895.0</ele>
      </trkpt>
      <trkpt lat="45.724707" lon="6.441915">
        <time>1970-01-01T00:00:00+00:00</time>
        <ele>898.0</ele>
      </trkpt>
      <trkpt lat="45.724585" lon="6.441838">
        <time>1970-01-01T00:00:00+00:00</time>
        <ele>898.0</ele>
      </trkpt>
      <trkpt lat="45.724114" lon="6.44179">
        <time>1970-01-01T00:00:00+00:00</time>
        <ele>895.0</ele>
      </trkpt>
      <trkpt lat="45.723978" lon="6.441691">
        <time>1970-01-01T00:00:00+00:00</time>
        <ele>896.0</ele>
      </trkpt>
      <trkpt lat="45.723823" lon="6.441461">
        <time>1970-01-01T00:00:00+00:00</time>
        <ele>899.0</ele>
      </trkpt>
      <trkpt lat="45.72364" lon="6.441096">
        <time>1970-01-01T00:00:00+00:00</time>
        <ele>905.0</ele>
      </trkpt>
      <trkpt lat="45.723474" lon="6.440555">
        <time>1970-01-01T00:00:00+00:00</time>
        <ele>917.0</ele>
      </trkpt>
      <trkpt lat="45.723316" lon="6.439925">
        <time>1970-01-01T00:00:00+00:00</time>
        <ele>926.0</ele>
      </trkpt>
      <trkpt lat="45.72322" lon="6.439638">
        <time>1970-01-01T00:00:00+00:00</time>
        <ele>930.0</ele>
      </trkpt>
      <trkpt lat="45.723222" lon="6.439422">
        <time>1970-01-01T00:00:00+00:00</time>
        <ele>933.0</ele>
      </trkpt>
      <trkpt lat="45.723195" lon="6.439143">
        <time>1970-01-01T00:00:00+00:00</time>
        <ele>936.0</ele>
      </trkpt>
      <trkpt lat="45.723079" lon="6.438608">
        <time>1970-01-01T00:00:00+00:00</time>
        <ele>936.0</ele>
      </trkpt>
      <trkpt lat="45.723121" lon="6.437628">
        <time>1970-01-01T00:00:00+00:00</time>
        <ele>936.0</ele>
      </trkpt>
      <trkpt lat="45.723074" lon="6.437416">
        <time>1970-01-01T00:00:00+00:00</time>
        <ele>938.0</ele>
      </trkpt>
      <trkpt lat="45.722842" lon="6.43664">
        <time>1970-01-01T00:00:00+00:00</time>
        <ele>952.0</ele>
      </trkpt>
      <trkpt lat="45.722721" lon="6.4364">
        <time>1970-01-01T00:00:00+00:00</time>
        <ele>954.0</ele>
      </trkpt>
      <trkpt lat="45.72258" lon="6.436191">
        <time>1970-01-01T00:00:00+00:00</time>
        <ele>957.0</ele>
      </trkpt>
      <trkpt lat="45.722592" lon="6.436071">
        <time>1970-01-01T00:00:00+00:00</time>
        <ele>959.0</ele>
      </trkpt>
      <trkpt lat="45.72254" lon="6.435918">
        <time>1970-01-01T00:00:00+00:00</time>
        <ele>961.0</ele>
      </trkpt>
      <trkpt lat="45.722451" lon="6.435749">
        <time>1970-01-01T00:00:00+00:00</time>
        <ele>964.0</ele>
      </trkpt>
      <trkpt lat="45.722387" lon="6.435519">
        <time>1970-01-01T00:00:00+00:00</time>
        <ele>970.0</ele>
      </trkpt>
      <trkpt lat="45.722291" lon="6.435292">
        <time>1970-01-01T00:00:00+00:00</time>
        <ele>976.0</ele>
      </trkpt>
      <trkpt lat="45.722195" lon="6.435221">
        <time>1970-01-01T00:00:00+00:00</time>
        <ele>976.0</ele>
      </trkpt>
      <trkpt lat="45.722041" lon="6.435204">
        <time>1970-01-01T00:00:00+00:00</time>
        <ele>974.0</ele>
      </trkpt>
      <trkpt lat="45.721918" lon="6.435073">
        <time>1970-01-01T00:00:00+00:00</time>
        <ele>978.0</ele>
      </trkpt>
      <trkpt lat="45.721799" lon="6.43485">
        <time>1970-01-01T00:00:00+00:00</time>
        <ele>983.0</ele>
      </trkpt>
      <trkpt lat="45.721713" lon="6.434436">
        <time>1970-01-01T00:00:00+00:00</time>
        <ele>985.0</ele>
      </trkpt>
      <trkpt lat="45.721562" lon="6.43423">
        <time>1970-01-01T00:00:00+00:00</time>
        <ele>986.0</ele>
      </trkpt>
      <trkpt lat="45.721419" lon="6.433979">
        <time>1970-01-01T00:00:00+00:00</time>
        <ele>987.0</ele>
      </trkpt>
      <trkpt lat="45.721241" lon="6.433777">
        <time>1970-01-01T00:00:00+00:00</time>
        <ele>987.0</ele>
      </trkpt>
      <trkpt lat="45.721021" lon="6.433611">
        <time>1970-01-01T00:00:00+00:00</time>
        <ele>989.0</ele>
      </trkpt>
      <trkpt lat="45.720779" lon="6.43354">
        <time>1970-01-01T00:00:00+00:00</time>
        <ele>989.0</ele>
      </trkpt>
      <trkpt lat="45.720499" lon="6.4336">
        <time>1970-01-01T00:00:00+00:00</time>
        <ele>989.0</ele>
      </trkpt>
      <trkpt lat="45.720334" lon="6.433597">
        <time>1970-01-01T00:00:00+00:00</time>
        <ele>989.0</ele>
      </trkpt>
      <trkpt lat="45.720089" lon="6.433282">
        <time>1970-01-01T00:00:00+00:00</time>
        <ele>991.0</ele>
      </trkpt>
      <trkpt lat="45.719981" lon="6.433257">
        <time>1970-01-01T00:00:00+00:00</time>
        <ele>990.0</ele>
      </trkpt>
      <trkpt lat="45.719882" lon="6.433317">
        <time>1970-01-01T00:00:00+00:00</time>
        <ele>992.0</ele>
      </trkpt>
      <trkpt lat="45.719771" lon="6.433303">
        <time>1970-01-01T00:00:00+00:00</time>
        <ele>995.0</ele>
      </trkpt>
      <trkpt lat="45.719682" lon="6.433331">
        <time>1970-01-01T00:00:00+00:00</time>
        <ele>998.0</ele>
      </trkpt>
      <trkpt lat="45.719635" lon="6.433413">
        <time>1970-01-01T00:00:00+00:00</time>
        <ele>1000.0</ele>
      </trkpt>
      <trkpt lat="45.719627" lon="6.433576">
        <time>1970-01-01T00:00:00+00:00</time>
        <ele>997.0</ele>
      </trkpt>
      <trkpt lat="45.719541" lon="6.433576">
        <time>1970-01-01T00:00:00+00:00</time>
        <ele>1000.0</ele>
      </trkpt>
      <trkpt lat="45.719504" lon="6.433515">
        <time>1970-01-01T00:00:00+00:00</time>
        <ele>1001.0</ele>
      </trkpt>
      <trkpt lat="45.719486" lon="6.433445">
        <time>1970-01-01T00:00:00+00:00</time>
        <ele>1003.0</ele>
      </trkpt>
      <trkpt lat="45.719454" lon="6.433455">
        <time>1970-01-01T00:00:00+00:00</time>
        <ele>1003.0</ele>
      </trkpt>
      <trkpt lat="45.719158" lon="6.433367">
        <time>1970-01-01T00:00:00+00:00</time>
        <ele>1003.0</ele>
      </trkpt>
      <trkpt lat="45.719102" lon="6.433308">
        <time>1970-01-01T00:00:00+00:00</time>
        <ele>1003.0</ele>
      </trkpt>
      <trkpt lat="45.719102" lon="6.433308">
        <time>1970-01-01T00:00:00+00:00</time>
        <ele>1003.0</ele>
      </trkpt>
      <trkpt lat="45.719027" lon="6.433229">
        <time>1970-01-01T00:00:00+00:00</time>
        <ele>1003.0</ele>
      </trkpt>
      <trkpt lat="45.718918" lon="6.433041">
        <time>1970-01-01T00:00:00+00:00</time>
        <ele>1003.0</ele>
      </trkpt>
      <trkpt lat="45.718881" lon="6.432818">
        <time>1970-01-01T00:00:00+00:00</time>
        <ele>1006.0</ele>
      </trkpt>
      <trkpt lat="45.718812" lon="6.432627">
        <time>1970-01-01T00:00:00+00:00</time>
        <ele>1005.0</ele>
      </trkpt>
      <trkpt lat="45.71874" lon="6.432524">
        <time>1970-01-01T00:00:00+00:00</time>
        <ele>1004.0</ele>
      </trkpt>
      <trkpt lat="45.71858" lon="6.432443">
        <time>1970-01-01T00:00:00+00:00</time>
        <ele>1001.0</ele>
      </trkpt>
      <trkpt lat="45.718392" lon="6.432379">
        <time>1970-01-01T00:00:00+00:00</time>
        <ele>997.0</ele>
      </trkpt>
      <trkpt lat="45.718229" lon="6.432273">
        <time>1970-01-01T00:00:00+00:00</time>
        <ele>994.0</ele>
      </trkpt>
      <trkpt lat="45.718058" lon="6.432139">
        <time>1970-01-01T00:00:00+00:00</time>
        <ele>990.0</ele>
      </trkpt>
      <trkpt lat="45.717912" lon="6.431944">
        <time>1970-01-01T00:00:00+00:00</time>
        <ele>991.0</ele>
      </trkpt>
      <trkpt lat="45.71728" lon="6.431445">
        <time>1970-01-01T00:00:00+00:00</time>
        <ele>984.0</ele>
      </trkpt>
      <trkpt lat="45.717013" lon="6.431116">
        <time>1970-01-01T00:00:00+00:00</time>
        <ele>985.0</ele>
      </trkpt>
      <trkpt lat="45.716877" lon="6.431056">
        <time>1970-01-01T00:00:00+00:00</time>
        <ele>984.0</ele>
      </trkpt>
      <trkpt lat="45.716711" lon="6.430762">
        <time>1970-01-01T00:00:00+00:00</time>
        <ele>985.0</ele>
      </trkpt>
      <trkpt lat="45.716491" lon="6.430316">
        <time>1970-01-01T00:00:00+00:00</time>
        <ele>990.0</ele>
      </trkpt>
      <trkpt lat="45.716346" lon="6.430072">
        <time>1970-01-01T00:00:00+00:00</time>
        <ele>993.0</ele>
      </trkpt>
      <trkpt lat="45.716326" lon="6.429796">
        <time>1970-01-01T00:00:00+00:00</time>
        <ele>995.0</ele>
      </trkpt>
      <trkpt lat="45.71634" lon="6.429663">
        <time>1970-01-01T00:00:00+00:00</time>
        <ele>995.0</ele>
      </trkpt>
      <trkpt lat="45.71621" lon="6.429343">
        <time>1970-01-01T00:00:00+00:00</time>
        <ele>994.0</ele>
      </trkpt>
      <trkpt lat="45.716038" lon="6.429137">
        <time>1970-01-01T00:00:00+00:00</time>
        <ele>994.0</ele>
      </trkpt>
      <trkpt lat="45.715931" lon="6.429193">
        <time>1970-01-01T00:00:00+00:00</time>
        <ele>994.0</ele>
      </trkpt>
      <trkpt lat="45.715816" lon="6.429098">
        <time>1970-01-01T00:00:00+00:00</time>
        <ele>993.0</ele>
      </trkpt>
      <trkpt lat="45.715336" lon="6.429052">
        <time>1970-01-01T00:00:00+00:00</time>
        <ele>988.0</ele>
      </trkpt>
      <trkpt lat="45.714885" lon="6.42872">
        <time>1970-01-01T00:00:00+00:00</time>
        <ele>988.0</ele>
      </trkpt>
      <trkpt lat="45.714823" lon="6.428737">
        <time>1970-01-01T00:00:00+00:00</time>
        <ele>986.0</ele>
      </trkpt>
      <trkpt lat="45.71448" lon="6.428271">
        <time>1970-01-01T00:00:00+00:00</time>
        <ele>973.0</ele>
      </trkpt>
      <trkpt lat="45.71432" lon="6.428127">
        <time>1970-01-01T00:00:00+00:00</time>
        <ele>971.0</ele>
      </trkpt>
      <trkpt lat="45.714225" lon="6.42786">
        <time>1970-01-01T00:00:00+00:00</time>
        <ele>973.0</ele>
      </trkpt>
      <trkpt lat="45.714075" lon="6.427678">
        <time>1970-01-01T00:00:00+00:00</time>
        <ele>972.0</ele>
      </trkpt>
      <trkpt lat="45.713834" lon="6.427688">
        <time>1970-01-01T00:00:00+00:00</time>
        <ele>963.0</ele>
      </trkpt>
      <trkpt lat="45.713658" lon="6.42765">
        <time>1970-01-01T00:00:00+00:00</time>
        <ele>958.0</ele>
      </trkpt>
      <trkpt lat="45.713433" lon="6.427412">
        <time>1970-01-01T00:00:00+00:00</time>
        <ele>958.0</ele>
      </trkpt>
      <trkpt lat="45.713211" lon="6.427361">
        <time>1970-01-01T00:00:00+00:00</time>
        <ele>954.0</ele>
      </trkpt>
      <trkpt lat="45.71283" lon="6.427099">
        <time>1970-01-01T00:00:00+00:00</time>
        <ele>949.0</ele>
      </trkpt>
      <trkpt lat="45.712572" lon="6.426861">
        <time>1970-01-01T00:00:00+00:00</time>
        <ele>947.0</ele>
      </trkpt>
      <trkpt lat="45.712266" lon="6.426688">
        <time>1970-01-01T00:00:00+00:00</time>
        <ele>946.0</ele>
      </trkpt>
      <trkpt lat="45.712073" lon="6.426544">
        <time>1970-01-01T00:00:00+00:00</time>
        <ele>944.0</ele>
      </trkpt>
      <trkpt lat="45.711949" lon="6.4266">
        <time>1970-01-01T00:00:00+00:00</time>
        <ele>937.0</ele>
      </trkpt>
      <trkpt lat="45.711724" lon="6.426389">
        <time>1970-01-01T00:00:00+00:00</time>
        <ele>937.0</ele>
      </trkpt>
      <trkpt lat="45.711467" lon="6.426217">
        <time>1970-01-01T00:00:00+00:00</time>
        <ele>940.0</ele>
      </trkpt>
      <trkpt lat="45.711281" lon="6.426011">
        <time>1970-01-01T00:00:00+00:00</time>
        <ele>942.0</ele>
      </trkpt>
      <trkpt lat="45.71118" lon="6.425936">
        <time>1970-01-01T00:00:00+00:00</time>
        <ele>939.0</ele>
      </trkpt>
      <trkpt lat="45.711157" lon="6.425815">
        <time>1970-01-01T00:00:00+00:00</time>
        <ele>942.0</ele>
      </trkpt>
      <trkpt lat="45.711075" lon="6.425782">
        <time>1970-01-01T00:00:00+00:00</time>
        <ele>940.0</ele>
      </trkpt>
      <trkpt lat="45.711044" lon="6.425696">
        <time>1970-01-01T00:00:00+00:00</time>
        <ele>942.0</ele>
      </trkpt>
      <trkpt lat="45.711037" lon="6.425503">
        <time>1970-01-01T00:00:00+00:00</time>
        <ele>948.0</ele>
      </trkpt>
      <trkpt lat="45.711112" lon="6.425482">
        <time>1970-01-01T00:00:00+00:00</time>
        <ele>948.0</ele>
      </trkpt>
      <trkpt lat="45.711179" lon="6.425267">
        <time>1970-01-01T00:00:00+00:00</time>
        <ele>944.0</ele>
      </trkpt>
      <trkpt lat="45.711292" lon="6.425321">
        <time>1970-01-01T00:00:00+00:00</time>
        <ele>936.0</ele>
      </trkpt>
      <trkpt lat="45.711351" lon="6.425181">
        <time>1970-01-01T00:00:00+00:00</time>
        <ele>931.0</ele>
      </trkpt>
      <trkpt lat="45.711449" lon="6.425138">
        <time>1970-01-01T00:00:00+00:00</time>
        <ele>927.0</ele>
      </trkpt>
      <trkpt lat="45.711554" lon="6.424999">
        <time>1970-01-01T00:00:00+00:00</time>
        <ele>923.0</ele>
      </trkpt>
      <trkpt lat="45.711584" lon="6.424935">
        <time>1970-01-01T00:00:00+00:00</time>
        <ele>923.0</ele>
      </trkpt>
      <trkpt lat="45.711778" lon="6.424849">
        <time>1970-01-01T00:00:00+00:00</time>
        <ele>920.0</ele>
      </trkpt>
      <trkpt lat="45.712265" lon="6.425042">
        <time>1970-01-01T00:00:00+00:00</time>
        <ele>921.0</ele>
      </trkpt>
      <trkpt lat="45.71225" lon="6.425171">
        <time>1970-01-01T00:00:00+00:00</time>
        <ele>920.0</ele>
      </trkpt>
      <trkpt lat="45.712632" lon="6.425535">
        <time>1970-01-01T00:00:00+00:00</time>
        <ele>912.0</ele>
      </trkpt>
      <trkpt lat="45.71276" lon="6.425514">
        <time>1970-01-01T00:00:00+00:00</time>
        <ele>907.0</ele>
      </trkpt>
      <trkpt lat="45.71288" lon="6.425578">
        <time>1970-01-01T00:00:00+00:00</time>
        <ele>904.0</ele>
      </trkpt>
      <trkpt lat="45.712955" lon="6.425471">
        <time>1970-01-01T00:00:00+00:00</time>
        <ele>902.0</ele>
      </trkpt>
      <trkpt lat="45.713104" lon="6.42545">
        <time>1970-01-01T00:00:00+00:00</time>
        <ele>901.0</ele>
      </trkpt>
      <trkpt lat="45.713546" lon="6.4256">
        <time>1970-01-01T00:00:00+00:00</time>
        <ele>897.0</ele>
      </trkpt>
      <trkpt lat="45.713704" lon="6.4256">
        <time>1970-01-01T00:00:00+00:00</time>
        <ele>894.0</ele>
      </trkpt>
      <trkpt lat="45.713764" lon="6.425578">
        <time>1970-01-01T00:00:00+00:00</time>
        <ele>891.0</ele>
      </trkpt>
      <trkpt lat="45.713861" lon="6.42575">
        <time>1970-01-01T00:00:00+00:00</time>
        <ele>891.0</ele>
      </trkpt>
      <trkpt lat="45.714153" lon="6.425954">
        <time>1970-01-01T00:00:00+00:00</time>
        <ele>891.0</ele>
      </trkpt>
      <trkpt lat="45.714363" lon="6.425965">
        <time>1970-01-01T00:00:00+00:00</time>
        <ele>888.0</ele>
      </trkpt>
      <trkpt lat="45.714603" lon="6.42605">
        <time>1970-01-01T00:00:00+00:00</time>
        <ele>885.0</ele>
      </trkpt>
      <trkpt lat="45.714745" lon="6.426072">
        <time>1970-01-01T00:00:00+00:00</time>
        <ele>880.0</ele>
      </trkpt>
      <trkpt lat="45.714775" lon="6.426007">
        <time>1970-01-01T00:00:00+00:00</time>
        <ele>877.0</ele>
      </trkpt>
      <trkpt lat="45.714745" lon="6.425825">
        <time>1970-01-01T00:00:00+00:00</time>
        <ele>873.0</ele>
      </trkpt>
      <trkpt lat="45.714595" lon="6.425568">
        <time>1970-01-01T00:00:00+00:00</time>
        <ele>872.0</ele>
      </trkpt>
      <trkpt lat="45.714438" lon="6.425374">
        <time>1970-01-01T00:00:00+00:00</time>
        <ele>871.0</ele>
      </trkpt>
      <trkpt lat="45.71437" lon="6.425235">
        <time>1970-01-01T00:00:00+00:00</time>
        <ele>869.0</ele>
      </trkpt>
      <trkpt lat="45.714378" lon="6.424591">
        <time>1970-01-01T00:00:00+00:00</time>
        <ele>857.0</ele>
      </trkpt>
      <trkpt lat="45.71443" lon="6.424559">
        <time>1970-01-01T00:00:00+00:00</time>
        <ele>855.0</ele>
      </trkpt>
      <trkpt lat="45.714558" lon="6.42457">
        <time>1970-01-01T00:00:00+00:00</time>
        <ele>851.0</ele>
      </trkpt>
      <trkpt lat="45.714663" lon="6.42472">
        <time>1970-01-01T00:00:00+00:00</time>
        <ele>851.0</ele>
      </trkpt>
      <trkpt lat="45.714827" lon="6.424849">
        <time>1970-01-01T00:00:00+00:00</time>
        <ele>847.0</ele>
      </trkpt>
      <trkpt lat="45.714962" lon="6.424881">
        <time>1970-01-01T00:00:00+00:00</time>
        <ele>843.0</ele>
      </trkpt>
      <trkpt lat="45.71512" lon="6.424763">
        <time>1970-01-01T00:00:00+00:00</time>
        <ele>837.0</ele>
      </trkpt>
      <trkpt lat="45.715329" lon="6.424699">
        <time>1970-01-01T00:00:00+00:00</time>
        <ele>834.0</ele>
      </trkpt>
      <trkpt lat="45.715457" lon="6.424774">
        <time>1970-01-01T00:00:00+00:00</time>
        <ele>833.0</ele>
      </trkpt>
      <trkpt lat="45.715936" lon="6.425332">
        <time>1970-01-01T00:00:00+00:00</time>
        <ele>829.0</ele>
      </trkpt>
      <trkpt lat="45.716093" lon="6.42545">
        <time>1970-01-01T00:00:00+00:00</time>
        <ele>828.0</ele>
      </trkpt>
      <trkpt lat="45.716311" lon="6.425557">
        <time>1970-01-01T00:00:00+00:00</time>
        <ele>827.0</ele>
      </trkpt>
      <trkpt lat="45.716453" lon="6.425664">
        <time>1970-01-01T00:00:00+00:00</time>
        <ele>826.0</ele>
      </trkpt>
      <trkpt lat="45.716753" lon="6.426029">
        <time>1970-01-01T00:00:00+00:00</time>
        <ele>829.0</ele>
      </trkpt>
      <trkpt lat="45.716917" lon="6.426147">
        <time>1970-01-01T00:00:00+00:00</time>
        <ele>827.0</ele>
      </trkpt>
      <trkpt lat="45.717037" lon="6.426115">
        <time>1970-01-01T00:00:00+00:00</time>
        <ele>820.0</ele>
      </trkpt>
      <trkpt lat="45.717165" lon="6.425986">
        <time>1970-01-01T00:00:00+00:00</time>
        <ele>814.0</ele>
      </trkpt>
      <trkpt lat="45.717285" lon="6.425836">
        <time>1970-01-01T00:00:00+00:00</time>
        <ele>809.0</ele>
      </trkpt>
      <trkpt lat="45.717359" lon="6.425643">
        <time>1970-01-01T00:00:00+00:00</time>
        <ele>808.0</ele>
      </trkpt>
      <trkpt lat="45.717449" lon="6.425493">
        <time>1970-01-01T00:00:00+00:00</time>
        <ele>805.0</ele>
      </trkpt>
      <trkpt lat="45.717614" lon="6.425407">
        <time>1970-01-01T00:00:00+00:00</time>
        <ele>804.0</ele>
      </trkpt>
      <trkpt lat="45.717771" lon="6.425364">
        <time>1970-01-01T00:00:00+00:00</time>
        <ele>804.0</ele>
      </trkpt>
      <trkpt lat="45.717944" lon="6.425407">
        <time>1970-01-01T00:00:00+00:00</time>
        <ele>804.0</ele>
      </trkpt>
      <trkpt lat="45.718116" lon="6.425525">
        <time>1970-01-01T00:00:00+00:00</time>
        <ele>803.0</ele>
      </trkpt>
      <trkpt lat="45.718228" lon="6.425568">
        <time>1970-01-01T00:00:00+00:00</time>
        <ele>800.0</ele>
      </trkpt>
      <trkpt lat="45.718393" lon="6.4256">
        <time>1970-01-01T00:00:00+00:00</time>
        <ele>796.0</ele>
      </trkpt>
      <trkpt lat="45.718461" lon="6.425471">
        <time>1970-01-01T00:00:00+00:00</time>
        <ele>791.0</ele>
      </trkpt>
      <trkpt lat="45.718783" lon="6.425589">
        <time>1970-01-01T00:00:00+00:00</time>
        <ele>781.0</ele>
      </trkpt>
      <trkpt lat="45.718992" lon="6.425546">
        <time>1970-01-01T00:00:00+00:00</time>
        <ele>773.0</ele>
      </trkpt>
      <trkpt lat="45.719262" lon="6.425675">
        <time>1970-01-01T00:00:00+00:00</time>
        <ele>770.0</ele>
      </trkpt>
      <trkpt lat="45.719487" lon="6.42575">
        <time>1970-01-01T00:00:00+00:00</time>
        <ele>761.0</ele>
      </trkpt>
      <trkpt lat="45.719577" lon="6.425879">
        <time>1970-01-01T00:00:00+00:00</time>
        <ele>759.0</ele>
      </trkpt>
      <trkpt lat="45.719682" lon="6.425965">
        <time>1970-01-01T00:00:00+00:00</time>
        <ele>755.0</ele>
      </trkpt>
      <trkpt lat="45.719801" lon="6.426115">
        <time>1970-01-01T00:00:00+00:00</time>
        <ele>751.0</ele>
      </trkpt>
      <trkpt lat="45.719929" lon="6.426093">
        <time>1970-01-01T00:00:00+00:00</time>
        <ele>741.0</ele>
      </trkpt>
      <trkpt lat="45.719944" lon="6.42604">
        <time>1970-01-01T00:00:00+00:00</time>
        <ele>739.0</ele>
      </trkpt>
      <trkpt lat="45.719861" lon="6.4259">
        <time>1970-01-01T00:00:00+00:00</time>
        <ele>741.0</ele>
      </trkpt>
      <trkpt lat="45.720011" lon="6.425975">
        <time>1970-01-01T00:00:00+00:00</time>
        <ele>734.0</ele>
      </trkpt>
      <trkpt lat="45.720153" lon="6.426093">
        <time>1970-01-01T00:00:00+00:00</time>
        <ele>729.0</ele>
      </trkpt>
      <trkpt lat="45.720318" lon="6.426179">
        <time>1970-01-01T00:00:00+00:00</time>
        <ele>723.0</ele>
      </trkpt>
      <trkpt lat="45.720386" lon="6.426115">
        <time>1970-01-01T00:00:00+00:00</time>
        <ele>720.0</ele>
      </trkpt>
      <trkpt lat="45.720535" lon="6.426168">
        <time>1970-01-01T00:00:00+00:00</time>
        <ele>716.0</ele>
      </trkpt>
      <trkpt lat="45.720655" lon="6.426265">
        <time>1970-01-01T00:00:00+00:00</time>
        <ele>716.0</ele>
      </trkpt>
      <trkpt lat="45.720783" lon="6.426265">
        <time>1970-01-01T00:00:00+00:00</time>
        <ele>715.0</ele>
      </trkpt>
      <trkpt lat="45.721022" lon="6.426126">
        <time>1970-01-01T00:00:00+00:00</time>
        <ele>710.0</ele>
      </trkpt>
      <trkpt lat="45.721075" lon="6.42605">
        <time>1970-01-01T00:00:00+00:00</time>
        <ele>708.0</ele>
      </trkpt>
      <trkpt lat="45.721105" lon="6.425879">
        <time>1970-01-01T00:00:00+00:00</time>
        <ele>706.0</ele>
      </trkpt>
      <trkpt lat="45.721" lon="6.425729">
        <time>1970-01-01T00:00:00+00:00</time>
        <ele>705.0</ele>
      </trkpt>
      <trkpt lat="45.720895" lon="6.425493">
        <time>1970-01-01T00:00:00+00:00</time>
        <ele>702.0</ele>
      </trkpt>
      <trkpt lat="45.720648" lon="6.425181">
        <time>1970-01-01T00:00:00+00:00</time>
        <ele>694.0</ele>
      </trkpt>
      <trkpt lat="45.72055" lon="6.425171">
        <time>1970-01-01T00:00:00+00:00</time>
        <ele>695.0</ele>
      </trkpt>
      <trkpt lat="45.720348" lon="6.424849">
        <time>1970-01-01T00:00:00+00:00</time>
        <ele>689.0</ele>
      </trkpt>
      <trkpt lat="45.720356" lon="6.424688">
        <time>1970-01-01T00:00:00+00:00</time>
        <ele>685.0</ele>
      </trkpt>
      <trkpt lat="45.720296" lon="6.424613">
        <time>1970-01-01T00:00:00+00:00</time>
        <ele>685.0</ele>
      </trkpt>
      <trkpt lat="45.72049" lon="6.424581">
        <time>1970-01-01T00:00:00+00:00</time>
        <ele>678.0</ele>
      </trkpt>
      <trkpt lat="45.720618" lon="6.424602">
        <time>1970-01-01T00:00:00+00:00</time>
        <ele>676.0</ele>
      </trkpt>
      <trkpt lat="45.72076" lon="6.42457">
        <time>1970-01-01T00:00:00+00:00</time>
        <ele>672.0</ele>
      </trkpt>
      <trkpt lat="45.720843" lon="6.424452">
        <time>1970-01-01T00:00:00+00:00</time>
        <ele>667.0</ele>
      </trkpt>
      <trkpt lat="45.72079" lon="6.424355">
        <time>1970-01-01T00:00:00+00:00</time>
        <ele>667.0</ele>
      </trkpt>
      <trkpt lat="45.72067" lon="6.424248">
        <time>1970-01-01T00:00:00+00:00</time>
        <ele>668.0</ele>
      </trkpt>
      <trkpt lat="45.720476" lon="6.424184">
        <time>1970-01-01T00:00:00+00:00</time>
        <ele>672.0</ele>
      </trkpt>
      <trkpt lat="45.720273" lon="6.423894">
        <time>1970-01-01T00:00:00+00:00</time>
        <ele>675.0</ele>
      </trkpt>
      <trkpt lat="45.720011" lon="6.423561">
        <time>1970-01-01T00:00:00+00:00</time>
        <ele>673.0</ele>
      </trkpt>
      <trkpt lat="45.719876" lon="6.423121">
        <time>1970-01-01T00:00:00+00:00</time>
        <ele>663.0</ele>
      </trkpt>
      <trkpt lat="45.719741" lon="6.423003">
        <time>1970-01-01T00:00:00+00:00</time>
        <ele>662.0</ele>
      </trkpt>
      <trkpt lat="45.719247" lon="6.422263">
        <time>1970-01-01T00:00:00+00:00</time>
        <ele>654.0</ele>
      </trkpt>
      <trkpt lat="45.719067" lon="6.422167">
        <time>1970-01-01T00:00:00+00:00</time>
        <ele>656.0</ele>
      </trkpt>
      <trkpt lat="45.718895" lon="6.422113">
        <time>1970-01-01T00:00:00+00:00</time>
        <ele>658.0</ele>
      </trkpt>
      <trkpt lat="45.71864" lon="6.421684">
        <time>1970-01-01T00:00:00+00:00</time>
        <ele>658.0</ele>
      </trkpt>
      <trkpt lat="45.718513" lon="6.421587">
        <time>1970-01-01T00:00:00+00:00</time>
        <ele>659.0</ele>
      </trkpt>
      <trkpt lat="45.718558" lon="6.421405">
        <time>1970-01-01T00:00:00+00:00</time>
        <ele>655.0</ele>
      </trkpt>
      <trkpt lat="45.71852" lon="6.421244">
        <time>1970-01-01T00:00:00+00:00</time>
        <ele>653.0</ele>
      </trkpt>
      <trkpt lat="45.718363" lon="6.421062">
        <time>1970-01-01T00:00:00+00:00</time>
        <ele>651.0</ele>
      </trkpt>
      <trkpt lat="45.717974" lon="6.420761">
        <time>1970-01-01T00:00:00+00:00</time>
        <ele>646.0</ele>
      </trkpt>
      <trkpt lat="45.717794" lon="6.4206">
        <time>1970-01-01T00:00:00+00:00</time>
        <ele>647.0</ele>
      </trkpt>
      <trkpt lat="45.717464" lon="6.420192">
        <time>1970-01-01T00:00:00+00:00</time>
        <ele>648.0</ele>
      </trkpt>
      <trkpt lat="45.717457" lon="6.420117">
        <time>1970-01-01T00:00:00+00:00</time>
        <ele>647.0</ele>
      </trkpt>
      <trkpt lat="45.717539" lon="6.420128">
        <time>1970-01-01T00:00:00+00:00</time>
        <ele>646.0</ele>
      </trkpt>
      <trkpt lat="45.717659" lon="6.420246">
        <time>1970-01-01T00:00:00+00:00</time>
        <ele>644.0</ele>
      </trkpt>
      <trkpt lat="45.717779" lon="6.420267">
        <time>1970-01-01T00:00:00+00:00</time>
        <ele>643.0</ele>
      </trkpt>
      <trkpt lat="45.717801" lon="6.420171">
        <time>1970-01-01T00:00:00+00:00</time>
        <ele>642.0</ele>
      </trkpt>
      <trkpt lat="45.717801" lon="6.420042">
        <time>1970-01-01T00:00:00+00:00</time>
        <ele>641.0</ele>
      </trkpt>
      <trkpt lat="45.717914" lon="6.419763">
        <time>1970-01-01T00:00:00+00:00</time>
        <ele>638.0</ele>
      </trkpt>
      <trkpt lat="45.717981" lon="6.419656">
        <time>1970-01-01T00:00:00+00:00</time>
        <ele>637.0</ele>
      </trkpt>
      <trkpt lat="45.717921" lon="6.419463">
        <time>1970-01-01T00:00:00+00:00</time>
        <ele>635.0</ele>
      </trkpt>
      <trkpt lat="45.717779" lon="6.419278">
        <time>1970-01-01T00:00:00+00:00</time>
        <ele>632.0</ele>
      </trkpt>
      <trkpt lat="45.717944" lon="6.419259">
        <time>1970-01-01T00:00:00+00:00</time>
        <ele>631.0</ele>
      </trkpt>
      <trkpt lat="45.718116" lon="6.419313">
        <time>1970-01-01T00:00:00+00:00</time>
        <ele>630.0</ele>
      </trkpt>
      <trkpt lat="45.718408" lon="6.419806">
        <time>1970-01-01T00:00:00+00:00</time>
        <ele>631.0</ele>
      </trkpt>
      <trkpt lat="45.718603" lon="6.419924">
        <time>1970-01-01T00:00:00+00:00</time>
        <ele>626.0</ele>
      </trkpt>
      <trkpt lat="45.71885" lon="6.420192">
        <time>1970-01-01T00:00:00+00:00</time>
        <ele>623.0</ele>
      </trkpt>
      <trkpt lat="45.719" lon="6.420493">
        <time>1970-01-01T00:00:00+00:00</time>
        <ele>621.0</ele>
      </trkpt>
      <trkpt lat="45.719135" lon="6.420611">
        <time>1970-01-01T00:00:00+00:00</time>
        <ele>621.0</ele>
      </trkpt>
      <trkpt lat="45.719337" lon="6.4206">
        <time>1970-01-01T00:00:00+00:00</time>
        <ele>614.0</ele>
      </trkpt>
      <trkpt lat="45.719592" lon="6.420665">
        <time>1970-01-01T00:00:00+00:00</time>
        <ele>609.0</ele>
      </trkpt>
      <trkpt lat="45.719764" lon="6.420836">
        <time>1970-01-01T00:00:00+00:00</time>
        <ele>609.0</ele>
      </trkpt>
      <trkpt lat="45.720004" lon="6.421126">
        <time>1970-01-01T00:00:00+00:00</time>
        <ele>607.0</ele>
      </trkpt>
      <trkpt lat="45.720213" lon="6.421265">
        <time>1970-01-01T00:00:00+00:00</time>
        <ele>601.0</ele>
      </trkpt>
      <trkpt lat="45.72052" lon="6.421351">
        <time>1970-01-01T00:00:00+00:00</time>
        <ele>596.0</ele>
      </trkpt>
      <trkpt lat="45.721262" lon="6.421469">
        <time>1970-01-01T00:00:00+00:00</time>
        <ele>589.0</ele>
      </trkpt>
      <trkpt lat="45.721577" lon="6.421673">
        <time>1970-01-01T00:00:00+00:00</time>
        <ele>587.0</ele>
      </trkpt>
      <trkpt lat="45.722153" lon="6.421791">
        <time>1970-01-01T00:00:00+00:00</time>
        <ele>578.0</ele>
      </trkpt>
      <trkpt lat="45.722543" lon="6.421952">
        <time>1970-01-01T00:00:00+00:00</time>
        <ele>574.0</ele>
      </trkpt>
      <trkpt lat="45.72273" lon="6.42207">
        <time>1970-01-01T00:00:00+00:00</time>
        <ele>572.0</ele>
      </trkpt>
      <trkpt lat="45.723232" lon="6.422596">
        <time>1970-01-01T00:00:00+00:00</time>
        <ele>564.0</ele>
      </trkpt>
      <trkpt lat="45.723599" lon="6.42281">
        <time>1970-01-01T00:00:00+00:00</time>
        <ele>557.0</ele>
      </trkpt>
      <trkpt lat="45.723801" lon="6.422961">
        <time>1970-01-01T00:00:00+00:00</time>
        <ele>552.0</ele>
      </trkpt>
      <trkpt lat="45.723958" lon="6.423108">
        <time>1970-01-01T00:00:00+00:00</time>
        <ele>549.0</ele>
      </trkpt>
      <trkpt lat="45.723964" lon="6.423416">
        <time>1970-01-01T00:00:00+00:00</time>
        <ele>548.0</ele>
      </trkpt>
      <trkpt lat="45.724192" lon="6.423692">
        <time>1970-01-01T00:00:00+00:00</time>
        <ele>546.0</ele>
      </trkpt>
      <trkpt lat="45.72434" lon="6.423679">
        <time>1970-01-01T00:00:00+00:00</time>
        <ele>543.0</ele>
      </trkpt>
      <trkpt lat="45.7244" lon="6.423585">
        <time>1970-01-01T00:00:00+00:00</time>
        <ele>541.0</ele>
      </trkpt>
    </trkseg>
  </trk>
</gpx>
